Fairbanks Ft. Wainwright, AK

10:48 AM AKDT on April 26, 2017 (GMT -0800)
Ladd Army Air Field

Weather History for PAFB - March, 2014

Change the Weather History Date:

Saturday, March 15, 2014

  Actual Average Record
Temperature  
Mean Temperature 11 °F -  
Max Temperature 21 °F 22 °F 41 °F (2005)
Min Temperature -2 °F 0 °F -35 °F (2015)
Degree Days  
Heating Degree Days 54    
Moisture  
Dew Point 5 °F    
Average Humidity 70    
Maximum Humidity 88    
Minimum Humidity 61    
Precipitation  
Precipitation 0.00 in - - ()
Sea Level Pressure  
Sea Level Pressure 29.60 in    
Wind  
Wind Speed 4 mph (SW)    
Max Wind Speed 10 mph    
Max Gust Speed -    
Visibility 10 miles    
Events      
Averages and records for this station are not official NWS values.
T = Trace of Precipitation, MM = Missing Value Source: NWS Daily Summary

Daily Weather History Graph

Daily Weather History Graph

Search for Another Location

Airport or City:

Trip Planner

Search our weather history database for the weather conditions in past years. The results will help you decide how hot, cold, wet, or windy it might be!

Date:

Astronomy

Mar. 15, 2014 Rise Set
Actual Time 8:08 AM AKDT 7:51 PM AKDT
Civil Twilight 7:19 AM AKDT 8:40 PM AKDT
Nautical Twilight 6:21 AM AKDT 9:39 PM AKDT
Astronomical Twilight 5:16 AM AKDT 10:45 PM AKDT
Moon 7:19 PM AKDT (3/15) 7:35 AM AKDT (3/15)
Length of Visible Light 13h 20m
Length of Day
11h 43m
Waxing Gibbous, 99% of the Moon is Illuminated
Mar 15
Waxing Gibbous
Mar 16
Full
Mar 23
Last Quarter
Mar 30
New
Apr 7
First Quarter

Hourly Weather History & Observations

Time (AKDT) Temp. Windchill Dew Point Humidity Pressure Visibility Wind Dir Wind Speed Gust Speed Precip Events Conditions
12:56 AM 19.0 °F - 12.9 °F 77% 29.21 in 10.0 mi Calm Calm - N/A   Clear
1:56 AM 17.1 °F - 12.0 °F 81% 29.24 in 10.0 mi Calm Calm - N/A   Scattered Clouds
2:56 AM 21.0 °F 12.4 °F 15.1 °F 78% 29.28 in 10.0 mi West 6.9 mph - N/A   Partly Cloudy
3:56 AM 21.0 °F 9.9 °F 10.9 °F 65% 29.36 in 10.0 mi WSW 10.4 mph - N/A   Overcast
4:56 AM 21.0 °F 12.4 °F 10.9 °F 65% 29.43 in 10.0 mi WSW 6.9 mph - N/A   Overcast
5:56 AM 18.0 °F 7.7 °F 8.1 °F 65% 29.49 in 10.0 mi SSW 8.1 mph - N/A   Overcast
6:56 AM 16.0 °F 6.3 °F 6.1 °F 65% 29.56 in 10.0 mi SW 6.9 mph - N/A   Overcast
7:56 AM 14.0 °F 5.1 °F 5.0 °F 67% 29.60 in 10.0 mi SSW 5.8 mph - N/A   Overcast
8:56 AM 14.0 °F 3.9 °F 5.0 °F 67% 29.64 in 10.0 mi South 6.9 mph - N/A   Overcast
9:56 AM 12.9 °F -0.2 °F 5.0 °F 71% 29.67 in 10.0 mi SW 10.4 mph - N/A   Overcast
10:56 AM 12.0 °F -0.4 °F 3.9 °F 70% 29.70 in 10.0 mi SSW 9.2 mph - N/A   Overcast
11:56 AM 12.0 °F 2.7 °F 3.0 °F 67% 29.73 in 10.0 mi SW 5.8 mph - N/A   Mostly Cloudy
12:56 PM 14.0 °F - 3.9 °F 64% 29.74 in 10.0 mi Calm Calm - N/A   Overcast
1:56 PM 15.1 °F 9.4 °F 3.9 °F 61% 29.75 in 10.0 mi SW 3.5 mph - N/A   Partly Cloudy
2:56 PM 16.0 °F 10.4 °F 5.0 °F 62% 29.74 in 10.0 mi South 3.5 mph - N/A   Partly Cloudy
3:56 PM 15.1 °F 9.4 °F 3.9 °F 61% 29.73 in 10.0 mi WSW 3.5 mph - N/A   Overcast
4:56 PM 15.1 °F 9.4 °F 5.0 °F 64% 29.72 in 10.0 mi West 3.5 mph - N/A   Mostly Cloudy
5:56 PM 12.9 °F - 3.9 °F 67% 29.71 in 10.0 mi Calm Calm - N/A   Clear
6:56 PM 9.0 °F 2.4 °F 1.0 °F 70% 29.70 in 10.0 mi WSW 3.5 mph - N/A   Clear
7:56 PM 6.1 °F -0.9 °F -0.9 °F 73% 29.69 in 10.0 mi SW 3.5 mph - N/A   Clear
8:56 PM 1.9 °F - -0.9 °F 88% 29.69 in 10.0 mi Calm Calm - N/A   Clear
9:56 PM 1.0 °F -12.9 °F -2.9 °F 83% 29.67 in 10.0 mi West 8.1 mph - N/A   Clear
10:56 PM 3.0 °F -6.4 °F -2.0 °F 80% 29.67 in 10.0 mi SW 4.6 mph - N/A   Clear
11:56 PM -2.0 °F - -7.1 °F 79% 29.68 in 10.0 mi Calm Calm - N/A   Clear